sat.trackr.live / text

‹ back to catalog

STARLINK-4147

NORAD 53256 · 2022-086Q

PAYLOAD ACTIVE UNKNOWN

§ Identity

Operator
Country
US
Launch date
2022-07-24
Launch site
AFETR
Launch vehicle
Mass (kg)
RCS (m²)

Purposes: comms

External: N2YO · Heavens-Above · Gunter

§ Orbital elements

Epoch: 2026-05-24T16:08:05.855136Z

Period
95.44 min
Inclination
53.2131°
Eccentricity
0.0000991
Mean motion
15.08815897 rev/d
Perigee alt
539.1 km
Apogee alt
540.5 km
Semi-major
6,918.0 km
B*
-2.0938e-4
RAAN
213.0195°
Arg perigee
108.1570°
Mean anomaly
251.9531°
Rev number
21,253

§ Raw data

STARLINK-41471 53256U 22086Q   26144.67228999 -.00003616  00000+0 -20938-3 0  99902 53256  53.2131 213.0195 0000991 108.1570 251.9531 15.08815897212531

JSON: /api/v1/satellites/53256 · /tle

For live sub-satellite position, see the globe view (requires WebGL).

§ Visibility from observer

Set your observer location to see the next 7 days of passes ≥ 10°. The values pass through the URL so the page stays shareable.

No JS? Fill the form by hand. The geolocation button needs JavaScript.